Weather in Smakhtino

Russia / Kaluga Oblast     54°50′58″N   36°25′00″E
temp.,
°C
wind,
m/s
gust,
m/s
humid.,
%
clouds,
%
prec.,
mm/h
press.,
hPa
HPBL,
m
1 july, fri
fri100:00+13n24746 0.0 101855
03:00+12nnw35800 0.0 101875
06:00+14nnw39790 0.0 1017233
09:00+20nne58585 0.0 1017951
12:00+21ne68412 0.0 10181792
15:00+21ne57330 0.0 10191912
18:00+20ne47410 0.0 10201377
21:00+13ene23650 0.0 102252
2 july, sat
sat200:00+10ne23715 0.0 102343
03:00+9nne22700 0.0 102429
06:00+11nnw24715 0.0 1024115
09:00+17nnw35505 0.0 1024578
12:00+21nnw45395 0.0 10231453
15:00+23nw45350 0.0 10221663
18:00+22nnw364747 0.0 1020754
21:00+16nw36692 0.0 102093
3 july, sun
sun300:00+15wnw35748 0.0 102070
03:00+14wnw387189 0.0 1019156
06:00+15wnw31171100 0.0 1018276
09:00+21nnw4856100 0.0 1018452
12:00+26nnw575198 0.2 10171142
15:00+27nnw574594 0.2 10161783
18:00+26nnw485697 0.0 1016616
21:00+20nnw357953 0.4 1016101
4 july, mon
mon400:00+17ne22905 0.6 101716
03:00+16nne22905 0.8 101711
06:00+17ne11875 0.0 101841
09:00+23ne11618 0.0 1018451
12:00+27ene12453 0.0 10171553
15:00+28nw124178 0.0 10172225
18:00+27ssw225316 0.0 1016571
21:00+18wsw239642 0.9 101863
5 july, tue
tue500:00+17sw2291100 0.0 101813
03:00+16sw119398 0.1 101811
06:00+17sw2493100 0.0 101898
09:00+23ssw347055 0.0 1018447
12:00+27sw335265 0.0 10171347
15:00+28sw4348100 0.0 10161916
18:00+27sw355791 0.0 10151207
21:00+20sw4108986 0.6 1015175